Year,Month,Day,Hour,Minute,Value (Times are PST for temperature in C)
2018,06,12,00,00,11.20
2018,06,12,00,01,11.20
2018,06,12,00,02,11.10
2018,06,12,00,03,11.10
2018,06,12,00,04,11.10
2018,06,12,00,05,11.10
2018,06,12,00,06,11.10
2018,06,12,00,07,11.10
2018,06,12,00,08,11.10
2018,06,12,00,09,11.10
2018,06,12,00,10,11.10
2018,06,12,00,11,11.10
2018,06,12,00,12,11.10
2018,06,12,00,13,11.10
2018,06,12,00,14,11.00
2018,06,12,00,15,11.00
2018,06,12,00,16,11.00
2018,06,12,00,17,10.90
2018,06,12,00,18,10.90
2018,06,12,00,19,10.90
2018,06,12,00,20,10.80
2018,06,12,00,21,10.80
2018,06,12,00,22,10.80
2018,06,12,00,23,10.80
2018,06,12,00,24,10.70
2018,06,12,00,25,10.70
2018,06,12,00,26,10.70
2018,06,12,00,27,10.60
2018,06,12,00,28,10.60
2018,06,12,00,29,10.60
2018,06,12,00,30,10.70
2018,06,12,00,31,10.70
2018,06,12,00,32,10.70
2018,06,12,00,33,10.70
2018,06,12,00,34,10.70
2018,06,12,00,35,10.70
2018,06,12,00,36,10.70
2018,06,12,00,37,10.60
2018,06,12,00,38,10.60
2018,06,12,00,39,10.50
2018,06,12,00,40,10.50
2018,06,12,00,41,10.40
2018,06,12,00,42,10.40
2018,06,12,00,43,10.40
2018,06,12,00,44,10.30
2018,06,12,00,45,10.30
2018,06,12,00,46,10.30
2018,06,12,00,47,10.20
2018,06,12,00,48,10.20
2018,06,12,00,49,10.20
2018,06,12,00,50,10.10
2018,06,12,00,51,10.10
2018,06,12,00,52,10.00
2018,06,12,00,53,9.90
2018,06,12,00,54,9.80
2018,06,12,00,55,9.80
2018,06,12,00,56,9.70
2018,06,12,00,57,9.70
2018,06,12,00,58,9.70
2018,06,12,00,59,9.60
2018,06,12,01,00,9.60
2018,06,12,01,01,9.60
2018,06,12,01,02,9.60
2018,06,12,01,03,9.60
2018,06,12,01,04,9.60
2018,06,12,01,05,9.60
2018,06,12,01,06,9.60
2018,06,12,01,07,9.60
2018,06,12,01,08,9.60
2018,06,12,01,09,9.70
2018,06,12,01,10,9.70
2018,06,12,01,11,9.70
2018,06,12,01,12,9.70
2018,06,12,01,13,9.70
2018,06,12,01,14,9.60
2018,06,12,01,15,9.60
2018,06,12,01,16,9.60
2018,06,12,01,17,9.60
2018,06,12,01,18,9.60
2018,06,12,01,19,9.50
2018,06,12,01,20,9.50
2018,06,12,01,21,9.50
2018,06,12,01,22,9.50
2018,06,12,01,23,9.40
2018,06,12,01,24,9.40
2018,06,12,01,25,9.40
2018,06,12,01,26,9.30
2018,06,12,01,27,9.30
2018,06,12,01,28,9.30
2018,06,12,01,29,9.30
2018,06,12,01,30,9.30
2018,06,12,01,31,9.30
2018,06,12,01,32,9.30
2018,06,12,01,33,9.30
2018,06,12,01,34,9.20
2018,06,12,01,35,9.20
2018,06,12,01,36,9.20
2018,06,12,01,37,9.20
2018,06,12,01,38,9.20
2018,06,12,01,39,9.20
2018,06,12,01,40,9.20
2018,06,12,01,41,9.20
2018,06,12,01,42,9.20
2018,06,12,01,43,9.20
2018,06,12,01,44,9.20
2018,06,12,01,45,9.20
2018,06,12,01,46,9.20
2018,06,12,01,47,9.20
2018,06,12,01,48,9.20
2018,06,12,01,49,9.10
2018,06,12,01,50,9.10
2018,06,12,01,51,9.10
2018,06,12,01,52,9.00
2018,06,12,01,53,9.00
2018,06,12,01,54,9.00
2018,06,12,01,55,9.10
2018,06,12,01,56,9.10
2018,06,12,01,57,9.10
2018,06,12,01,58,9.10
2018,06,12,01,59,9.10
2018,06,12,02,00,9.10
2018,06,12,02,01,9.10
2018,06,12,02,02,9.10
2018,06,12,02,03,9.10
2018,06,12,02,04,9.10
2018,06,12,02,05,9.10
2018,06,12,02,06,9.00
2018,06,12,02,07,9.00
2018,06,12,02,08,8.90
2018,06,12,02,09,8.90
2018,06,12,02,10,8.80
2018,06,12,02,11,8.80
2018,06,12,02,12,8.80
2018,06,12,02,13,8.70
2018,06,12,02,14,8.70
2018,06,12,02,15,8.70
2018,06,12,02,16,8.60
2018,06,12,02,17,8.60
2018,06,12,02,18,8.60
2018,06,12,02,19,8.60
2018,06,12,02,20,8.50
2018,06,12,02,21,8.50
2018,06,12,02,22,8.50
2018,06,12,02,23,8.40
2018,06,12,02,24,8.40
2018,06,12,02,25,8.40
2018,06,12,02,26,8.40
2018,06,12,02,27,8.30
2018,06,12,02,28,8.30
2018,06,12,02,29,8.30
2018,06,12,02,30,8.30
2018,06,12,02,31,8.40
2018,06,12,02,32,8.40
2018,06,12,02,33,8.50
2018,06,12,02,34,8.50
2018,06,12,02,35,8.50
2018,06,12,02,36,8.40
2018,06,12,02,37,8.40
2018,06,12,02,38,8.40
2018,06,12,02,39,8.40
2018,06,12,02,40,8.40
2018,06,12,02,41,8.40
2018,06,12,02,42,8.30
2018,06,12,02,43,8.30
2018,06,12,02,44,8.30
2018,06,12,02,45,8.30
2018,06,12,02,46,8.20
2018,06,12,02,47,8.20
2018,06,12,02,48,8.20
2018,06,12,02,49,8.20
2018,06,12,02,50,8.10
2018,06,12,02,51,8.10
2018,06,12,02,52,8.10
2018,06,12,02,53,8.10
2018,06,12,02,54,8.00
2018,06,12,02,55,8.00
2018,06,12,02,56,8.00
2018,06,12,02,57,8.00
2018,06,12,02,58,7.90
2018,06,12,02,59,7.90
2018,06,12,03,00,7.90
2018,06,12,03,01,7.90
2018,06,12,03,02,7.80
2018,06,12,03,03,7.80
2018,06,12,03,04,7.80
2018,06,12,03,05,7.80
2018,06,12,03,06,7.80
2018,06,12,03,07,7.80
2018,06,12,03,08,7.80
2018,06,12,03,09,7.80
2018,06,12,03,10,7.80
2018,06,12,03,11,7.80
2018,06,12,03,12,7.90
2018,06,12,03,13,7.90
2018,06,12,03,14,7.90
2018,06,12,03,15,7.90
2018,06,12,03,16,7.90
2018,06,12,03,17,7.90
2018,06,12,03,18,7.90
2018,06,12,03,19,7.90
2018,06,12,03,20,7.90
2018,06,12,03,21,7.90
2018,06,12,03,22,7.90
2018,06,12,03,23,7.90
2018,06,12,03,24,7.90
2018,06,12,03,25,7.90
2018,06,12,03,26,7.90
2018,06,12,03,27,7.90
2018,06,12,03,28,7.90
2018,06,12,03,29,7.90
2018,06,12,03,30,7.80
2018,06,12,03,31,7.80
2018,06,12,03,32,7.80
2018,06,12,03,33,7.80
2018,06,12,03,34,7.80
2018,06,12,03,35,7.70
2018,06,12,03,36,7.70
2018,06,12,03,37,7.70
2018,06,12,03,38,7.70
2018,06,12,03,39,7.70
2018,06,12,03,40,7.60
2018,06,12,03,41,7.60
2018,06,12,03,42,7.60
2018,06,12,03,43,7.60
2018,06,12,03,44,7.60
2018,06,12,03,45,7.50
2018,06,12,03,46,7.50
2018,06,12,03,47,7.50
2018,06,12,03,48,7.50
2018,06,12,03,49,7.40
2018,06,12,03,50,7.40
2018,06,12,03,51,7.40
2018,06,12,03,52,7.40
2018,06,12,03,53,7.40
2018,06,12,03,54,7.40
2018,06,12,03,55,7.40
2018,06,12,03,56,7.40
2018,06,12,03,57,7.30
2018,06,12,03,58,7.30
2018,06,12,03,59,7.30
2018,06,12,04,00,7.30
2018,06,12,04,01,7.30
2018,06,12,04,02,7.30
2018,06,12,04,03,7.30
2018,06,12,04,04,7.20
2018,06,12,04,05,7.20
2018,06,12,04,06,7.20
2018,06,12,04,07,7.20
2018,06,12,04,08,7.20
2018,06,12,04,09,7.20
2018,06,12,04,10,7.20
2018,06,12,04,11,7.20
2018,06,12,04,12,7.20
2018,06,12,04,13,7.20
2018,06,12,04,14,7.20
2018,06,12,04,15,7.20
2018,06,12,04,16,7.20
2018,06,12,04,17,7.20
2018,06,12,04,18,7.20
2018,06,12,04,19,7.20
2018,06,12,04,20,7.20
2018,06,12,04,21,7.20
2018,06,12,04,22,7.20
2018,06,12,04,23,7.20
2018,06,12,04,24,7.20
2018,06,12,04,25,7.20
2018,06,12,04,26,7.20
2018,06,12,04,27,7.20
2018,06,12,04,28,7.20
2018,06,12,04,29,7.20
2018,06,12,04,30,7.20
2018,06,12,04,31,7.20
2018,06,12,04,32,7.20
2018,06,12,04,33,7.20
2018,06,12,04,34,7.20
2018,06,12,04,35,7.20
2018,06,12,04,36,7.20
2018,06,12,04,37,7.10
2018,06,12,04,38,7.10
2018,06,12,04,39,7.10
2018,06,12,04,40,7.10
2018,06,12,04,41,7.10
2018,06,12,04,42,7.10
2018,06,12,04,43,7.10
2018,06,12,04,44,7.10
2018,06,12,04,45,7.10
2018,06,12,04,46,7.10
2018,06,12,04,47,7.10
2018,06,12,04,48,7.10
2018,06,12,04,49,7.10
2018,06,12,04,50,7.10
2018,06,12,04,51,7.10
2018,06,12,04,52,7.10
2018,06,12,04,53,7.10
2018,06,12,04,54,7.10
2018,06,12,04,55,7.10
2018,06,12,04,56,7.10
2018,06,12,04,57,7.10
2018,06,12,04,58,7.10
2018,06,12,04,59,7.10
2018,06,12,05,00,7.00
2018,06,12,05,01,7.00
2018,06,12,05,02,7.00
2018,06,12,05,03,7.00
2018,06,12,05,04,7.00
2018,06,12,05,05,6.90
2018,06,12,05,06,6.90
2018,06,12,05,07,6.90
2018,06,12,05,08,6.90
2018,06,12,05,09,6.80
2018,06,12,05,10,6.80
2018,06,12,05,11,6.80
2018,06,12,05,12,6.80
2018,06,12,05,13,6.80
2018,06,12,05,14,6.80
2018,06,12,05,15,6.80
2018,06,12,05,16,6.80
2018,06,12,05,17,6.90
2018,06,12,05,18,6.90
2018,06,12,05,19,6.90
2018,06,12,05,20,6.90
2018,06,12,05,21,6.90
2018,06,12,05,22,6.80
2018,06,12,05,23,6.80
2018,06,12,05,24,6.80
2018,06,12,05,25,6.80
2018,06,12,05,26,6.90
2018,06,12,05,27,6.90
2018,06,12,05,28,6.90
2018,06,12,05,29,6.90
2018,06,12,05,30,6.90
2018,06,12,05,31,6.90
2018,06,12,05,32,6.90
2018,06,12,05,33,6.90
2018,06,12,05,34,6.90
2018,06,12,05,35,6.90
2018,06,12,05,36,6.90
2018,06,12,05,37,6.90
2018,06,12,05,38,6.90
2018,06,12,05,39,6.90
2018,06,12,05,40,6.90
2018,06,12,05,41,7.00
2018,06,12,05,42,6.90
2018,06,12,05,43,6.90
2018,06,12,05,44,7.00
2018,06,12,05,45,7.00
2018,06,12,05,46,7.00
2018,06,12,05,47,7.00
2018,06,12,05,48,7.00
2018,06,12,05,49,7.00
2018,06,12,05,50,7.00
2018,06,12,05,51,7.00
2018,06,12,05,52,7.10
2018,06,12,05,53,7.10
2018,06,12,05,54,7.10
2018,06,12,05,55,7.10
2018,06,12,05,56,7.10
2018,06,12,05,57,7.10
2018,06,12,05,58,7.10
2018,06,12,05,59,7.10
2018,06,12,06,00,7.10
2018,06,12,06,01,7.10
2018,06,12,06,02,7.10
2018,06,12,06,03,7.10
2018,06,12,06,04,7.20
2018,06,12,06,05,7.20
2018,06,12,06,06,7.20
2018,06,12,06,07,7.20
2018,06,12,06,08,7.30
2018,06,12,06,09,7.30
2018,06,12,06,10,7.30
2018,06,12,06,11,7.40
2018,06,12,06,12,7.40
2018,06,12,06,13,7.50
2018,06,12,06,14,7.60
2018,06,12,06,15,7.60
2018,06,12,06,16,7.60
2018,06,12,06,17,7.70
2018,06,12,06,18,7.70
2018,06,12,06,19,7.70
2018,06,12,06,20,7.70
2018,06,12,06,21,7.80
2018,06,12,06,22,7.80
2018,06,12,06,23,7.80
2018,06,12,06,24,7.90
2018,06,12,06,25,7.90
2018,06,12,06,26,8.00
2018,06,12,06,27,8.10
2018,06,12,06,28,8.10
2018,06,12,06,29,8.20
2018,06,12,06,30,8.30
2018,06,12,06,31,8.30
2018,06,12,06,32,8.40
2018,06,12,06,33,8.40
2018,06,12,06,34,8.50
2018,06,12,06,35,8.50
2018,06,12,06,36,8.60
2018,06,12,06,37,8.60
2018,06,12,06,38,8.60
2018,06,12,06,39,8.70
2018,06,12,06,40,8.70
2018,06,12,06,41,8.70
2018,06,12,06,42,8.80
2018,06,12,06,43,8.80
2018,06,12,06,44,8.80
2018,06,12,06,45,8.80
2018,06,12,06,46,8.90
2018,06,12,06,47,8.90
2018,06,12,06,48,9.00
2018,06,12,06,49,9.00
2018,06,12,06,50,9.10
2018,06,12,06,51,9.10
2018,06,12,06,52,9.10
2018,06,12,06,53,9.20
2018,06,12,06,54,9.20
2018,06,12,06,55,9.30
2018,06,12,06,56,9.30
2018,06,12,06,57,9.30
2018,06,12,06,58,9.40
2018,06,12,06,59,9.40
2018,06,12,07,00,9.50
2018,06,12,07,01,9.50
2018,06,12,07,02,9.60
2018,06,12,07,03,9.60
2018,06,12,07,04,9.70
2018,06,12,07,05,9.70
2018,06,12,07,06,9.70
2018,06,12,07,07,9.80
2018,06,12,07,08,9.80
2018,06,12,07,09,9.80
2018,06,12,07,10,9.90
2018,06,12,07,11,9.90
2018,06,12,07,12,9.90
2018,06,12,07,13,10.00
2018,06,12,07,14,10.00
2018,06,12,07,15,10.10
2018,06,12,07,16,10.10
2018,06,12,07,17,10.10
2018,06,12,07,18,10.20
2018,06,12,07,19,10.20
2018,06,12,07,20,10.20
2018,06,12,07,21,10.30
2018,06,12,07,22,10.30
2018,06,12,07,23,10.30
2018,06,12,07,24,10.30
2018,06,12,07,25,10.40
2018,06,12,07,26,10.40
2018,06,12,07,27,10.40
2018,06,12,07,28,10.50
2018,06,12,07,29,10.50
2018,06,12,07,30,10.50
2018,06,12,07,31,10.60
2018,06,12,07,32,10.60
2018,06,12,07,33,10.60
2018,06,12,07,34,10.70
2018,06,12,07,35,10.70
2018,06,12,07,36,10.70
2018,06,12,07,37,10.70
2018,06,12,07,38,10.80
2018,06,12,07,39,10.80
2018,06,12,07,40,10.80
2018,06,12,07,41,10.80
2018,06,12,07,42,10.80
2018,06,12,07,43,10.80
2018,06,12,07,44,10.80
2018,06,12,07,45,10.90
2018,06,12,07,46,10.90
2018,06,12,07,47,10.90
2018,06,12,07,48,10.90
2018,06,12,07,49,10.90
2018,06,12,07,50,10.90
2018,06,12,07,51,10.90
2018,06,12,07,52,10.90
2018,06,12,07,53,10.90
2018,06,12,07,54,11.00
2018,06,12,07,55,11.00
2018,06,12,07,56,11.00
2018,06,12,07,57,11.00
2018,06,12,07,58,11.00
2018,06,12,07,59,11.00
2018,06,12,08,00,11.00
2018,06,12,08,01,11.00
2018,06,12,08,02,11.10
2018,06,12,08,03,11.10
2018,06,12,08,04,11.10
2018,06,12,08,05,11.10
2018,06,12,08,06,11.10
2018,06,12,08,07,11.10
2018,06,12,08,08,11.10
2018,06,12,08,09,11.20
2018,06,12,08,10,11.20
2018,06,12,08,11,11.20
2018,06,12,08,12,11.20
2018,06,12,08,13,11.30
2018,06,12,08,14,11.30
2018,06,12,08,15,11.30
2018,06,12,08,16,11.40
2018,06,12,08,17,11.40
2018,06,12,08,18,11.50
2018,06,12,08,19,11.60
2018,06,12,08,20,11.70
2018,06,12,08,21,11.70
2018,06,12,08,22,11.80
2018,06,12,08,23,11.80
2018,06,12,08,24,11.90
2018,06,12,08,25,12.00
2018,06,12,08,26,12.00
2018,06,12,08,27,12.10
2018,06,12,08,28,12.10
2018,06,12,08,29,12.20
2018,06,12,08,30,12.30
2018,06,12,08,31,12.30
2018,06,12,08,32,12.40
2018,06,12,08,33,12.50
2018,06,12,08,34,12.60
2018,06,12,08,35,12.70
2018,06,12,08,36,12.70
2018,06,12,08,37,12.70
2018,06,12,08,38,12.70
2018,06,12,08,39,12.80
2018,06,12,08,40,12.80
2018,06,12,08,41,12.80
2018,06,12,08,42,12.80
2018,06,12,08,43,12.80
2018,06,12,08,44,12.80
2018,06,12,08,45,12.80
2018,06,12,08,46,12.90
2018,06,12,08,47,12.90
2018,06,12,08,48,12.90
2018,06,12,08,49,13.00
2018,06,12,08,50,13.00
2018,06,12,08,51,13.10
2018,06,12,08,52,13.10
2018,06,12,08,53,13.10
2018,06,12,08,54,13.10
2018,06,12,08,55,13.10
2018,06,12,08,56,13.10
2018,06,12,08,57,13.10
2018,06,12,08,58,13.10
2018,06,12,08,59,13.10
2018,06,12,09,00,13.10
2018,06,12,09,01,13.10
2018,06,12,09,02,13.20
2018,06,12,09,03,13.20
2018,06,12,09,04,13.20
2018,06,12,09,05,13.30
2018,06,12,09,06,13.30
2018,06,12,09,07,13.30
2018,06,12,09,08,13.30
2018,06,12,09,09,13.40
2018,06,12,09,10,13.40
2018,06,12,09,11,13.30
2018,06,12,09,12,13.40
2018,06,12,09,13,13.40
2018,06,12,09,14,13.40
2018,06,12,09,15,13.40
2018,06,12,09,16,13.40
2018,06,12,09,17,13.50
2018,06,12,09,18,13.50
2018,06,12,09,19,13.50
2018,06,12,09,20,13.60
2018,06,12,09,21,13.60
2018,06,12,09,22,13.60
2018,06,12,09,23,13.60
2018,06,12,09,24,13.70
2018,06,12,09,25,13.70
2018,06,12,09,26,13.70
2018,06,12,09,27,13.80
2018,06,12,09,28,13.80
2018,06,12,09,29,13.80
2018,06,12,09,30,13.80
2018,06,12,09,31,13.80
2018,06,12,09,32,13.80
2018,06,12,09,33,13.80
2018,06,12,09,34,13.80
2018,06,12,09,35,13.80
2018,06,12,09,36,13.80
2018,06,12,09,37,13.80
2018,06,12,09,38,13.80
2018,06,12,09,39,13.80
2018,06,12,09,40,13.80
2018,06,12,09,41,13.80
2018,06,12,09,42,13.80
2018,06,12,09,43,13.80
2018,06,12,09,44,13.80
2018,06,12,09,45,13.70
2018,06,12,09,46,13.70
2018,06,12,09,47,13.70
2018,06,12,09,48,13.70
2018,06,12,09,49,13.70
2018,06,12,09,50,13.70
2018,06,12,09,51,13.70
2018,06,12,09,52,13.80
2018,06,12,09,53,13.80
2018,06,12,09,54,13.90
2018,06,12,09,55,13.90
2018,06,12,09,56,13.90
2018,06,12,09,57,13.90
2018,06,12,09,58,13.90
2018,06,12,09,59,13.90
2018,06,12,10,00,13.90
2018,06,12,10,01,13.90
2018,06,12,10,02,14.00
2018,06,12,10,03,14.00
2018,06,12,10,04,14.00
2018,06,12,10,05,14.00
2018,06,12,10,06,14.10
2018,06,12,10,07,14.10
2018,06,12,10,08,14.10
2018,06,12,10,09,14.00
2018,06,12,10,10,13.90
2018,06,12,10,11,13.90
2018,06,12,10,12,13.80
2018,06,12,10,13,13.70
2018,06,12,10,14,13.70
2018,06,12,10,15,13.60
2018,06,12,10,16,13.60
2018,06,12,10,17,13.60
2018,06,12,10,18,13.50
2018,06,12,10,19,13.50
2018,06,12,10,20,13.50
2018,06,12,10,21,13.50
2018,06,12,10,22,13.50
2018,06,12,10,23,13.50
2018,06,12,10,24,13.50
2018,06,12,10,25,13.50
2018,06,12,10,26,13.50
2018,06,12,10,27,13.50
2018,06,12,10,28,13.50
2018,06,12,10,29,13.50
2018,06,12,10,30,13.50
2018,06,12,10,31,13.50
2018,06,12,10,32,13.50
2018,06,12,10,33,13.50
2018,06,12,10,34,13.50
2018,06,12,10,35,13.50
2018,06,12,10,36,13.50
2018,06,12,10,37,13.60
2018,06,12,10,38,13.60
2018,06,12,10,39,13.60
2018,06,12,10,40,13.70
2018,06,12,10,41,13.70
2018,06,12,10,42,13.70
2018,06,12,10,43,13.70
2018,06,12,10,44,13.70
2018,06,12,10,45,13.70
2018,06,12,10,46,13.70
2018,06,12,10,47,13.80
2018,06,12,10,48,13.80
2018,06,12,10,49,13.80
2018,06,12,10,50,13.90
2018,06,12,10,51,13.90
2018,06,12,10,52,14.00
2018,06,12,10,53,14.00
2018,06,12,10,54,14.10
2018,06,12,10,55,14.10
2018,06,12,10,56,14.20
2018,06,12,10,57,14.20
2018,06,12,10,58,14.20
2018,06,12,10,59,14.20
2018,06,12,11,00,14.20
2018,06,12,11,01,14.20
2018,06,12,11,02,14.20
2018,06,12,11,03,14.20
2018,06,12,11,04,14.20
2018,06,12,11,05,14.20
2018,06,12,11,06,14.30
2018,06,12,11,07,14.30
2018,06,12,11,08,14.40
2018,06,12,11,09,14.40
2018,06,12,11,10,14.40
2018,06,12,11,11,14.40
2018,06,12,11,12,14.40
2018,06,12,11,13,14.40
2018,06,12,11,14,14.50
2018,06,12,11,15,14.50
2018,06,12,11,16,14.50
2018,06,12,11,17,14.50
2018,06,12,11,18,14.50
2018,06,12,11,20,14.60
2018,06,12,11,23,14.60
2018,06,12,11,24,14.60
2018,06,12,11,25,14.60
2018,06,12,11,26,14.50
2018,06,12,11,27,14.50
2018,06,12,11,28,14.50
2018,06,12,11,29,14.40
2018,06,12,11,30,14.40
2018,06,12,11,31,14.40
2018,06,12,11,32,14.40
2018,06,12,11,33,14.40
2018,06,12,11,34,14.40
2018,06,12,11,35,14.40
2018,06,12,11,36,14.30
2018,06,12,11,37,14.40
2018,06,12,11,38,14.40
2018,06,12,11,39,14.40
2018,06,12,11,40,14.40
2018,06,12,11,41,14.40
2018,06,12,11,42,14.40
2018,06,12,11,43,14.40
2018,06,12,11,44,14.40
2018,06,12,11,45,14.30
2018,06,12,11,46,14.30
2018,06,12,11,47,14.30
2018,06,12,11,48,14.30
2018,06,12,11,49,14.30
2018,06,12,11,50,14.30
2018,06,12,11,51,14.30
2018,06,12,11,52,14.30
2018,06,12,11,53,14.30
2018,06,12,11,54,14.30
2018,06,12,11,55,14.30
2018,06,12,11,56,14.30
2018,06,12,11,57,14.30
2018,06,12,11,58,14.30
2018,06,12,11,59,14.30
2018,06,12,12,00,14.30
2018,06,12,12,01,14.40
2018,06,12,12,02,14.40
2018,06,12,12,03,14.40
2018,06,12,12,04,14.40
2018,06,12,12,05,14.40
2018,06,12,12,06,14.50
2018,06,12,12,07,14.50
2018,06,12,12,08,14.50
2018,06,12,12,09,14.60
2018,06,12,12,10,14.60
2018,06,12,12,11,14.60
2018,06,12,12,12,14.70
2018,06,12,12,13,14.70
2018,06,12,12,14,14.70
2018,06,12,12,15,14.70
2018,06,12,12,16,14.70
2018,06,12,12,17,14.70
2018,06,12,12,18,14.70
2018,06,12,12,19,14.60
2018,06,12,12,20,14.60
2018,06,12,12,21,14.60
2018,06,12,12,22,14.60
2018,06,12,12,23,14.50
2018,06,12,12,24,14.50
2018,06,12,12,25,14.50
2018,06,12,12,26,14.50
2018,06,12,12,27,14.60
2018,06,12,12,28,14.60
2018,06,12,12,29,14.60
2018,06,12,12,30,14.60
2018,06,12,12,31,14.60
2018,06,12,12,32,14.60
2018,06,12,12,33,14.70
2018,06,12,12,34,14.60
2018,06,12,12,35,14.60
2018,06,12,12,36,14.60
2018,06,12,12,37,14.60
2018,06,12,12,38,14.60
2018,06,12,12,39,14.60
2018,06,12,12,40,14.60
2018,06,12,12,41,14.60
2018,06,12,12,42,14.70
2018,06,12,12,43,14.70
2018,06,12,12,44,14.70
2018,06,12,12,45,14.70
2018,06,12,12,46,14.80
2018,06,12,12,47,14.70
2018,06,12,12,48,14.70
2018,06,12,12,49,14.70
2018,06,12,12,50,14.70
2018,06,12,12,51,14.70
2018,06,12,12,52,14.70
2018,06,12,12,53,14.70
2018,06,12,12,54,14.70
2018,06,12,12,55,14.70
2018,06,12,12,56,14.70
2018,06,12,12,57,14.60
2018,06,12,12,58,14.60
2018,06,12,12,59,14.60
2018,06,12,13,00,14.70
2018,06,12,13,01,14.70
2018,06,12,13,02,14.70
2018,06,12,13,03,14.70
2018,06,12,13,04,14.70
2018,06,12,13,05,14.70
2018,06,12,13,06,14.80
2018,06,12,13,07,14.70
2018,06,12,13,08,14.70
2018,06,12,13,09,14.80
2018,06,12,13,10,14.80
2018,06,12,13,11,14.80
2018,06,12,13,12,14.80
2018,06,12,13,13,14.80
2018,06,12,13,14,14.90
2018,06,12,13,15,14.90
2018,06,12,13,16,14.90
2018,06,12,13,17,14.90
2018,06,12,13,18,14.90
2018,06,12,13,19,14.90
2018,06,12,13,20,14.90
2018,06,12,13,21,14.80
2018,06,12,13,22,14.80
2018,06,12,13,23,14.80
2018,06,12,13,24,14.90
2018,06,12,13,25,14.80
2018,06,12,13,26,14.80
2018,06,12,13,27,14.80
2018,06,12,13,28,14.80
2018,06,12,13,29,14.90
2018,06,12,13,30,14.90
2018,06,12,13,31,15.00
2018,06,12,13,32,15.00
2018,06,12,13,33,15.10
2018,06,12,13,34,15.10
2018,06,12,13,35,15.10
2018,06,12,13,36,15.10
2018,06,12,13,37,15.20
2018,06,12,13,38,15.20
2018,06,12,13,39,15.20
2018,06,12,13,40,15.20
2018,06,12,13,41,15.20
2018,06,12,13,42,15.20
2018,06,12,13,43,15.20
2018,06,12,13,44,15.30
2018,06,12,13,45,15.30
2018,06,12,13,46,15.30
2018,06,12,13,47,15.40
2018,06,12,13,48,15.40
2018,06,12,13,49,15.40
2018,06,12,13,50,15.40
2018,06,12,13,51,15.40
2018,06,12,13,52,15.40
2018,06,12,13,53,15.40
2018,06,12,13,54,15.40
2018,06,12,13,55,15.40
2018,06,12,13,56,15.40
2018,06,12,13,57,15.40
2018,06,12,13,58,15.40
2018,06,12,13,59,15.40
2018,06,12,14,00,15.40
2018,06,12,14,01,15.40
2018,06,12,14,02,15.40
2018,06,12,14,03,15.50
2018,06,12,14,04,15.50
2018,06,12,14,05,15.50
2018,06,12,14,06,15.60
2018,06,12,14,07,15.60
2018,06,12,14,08,15.70
2018,06,12,14,09,15.70
2018,06,12,14,10,15.80
2018,06,12,14,11,15.90
2018,06,12,14,12,15.90
2018,06,12,14,13,15.90
2018,06,12,14,14,16.00
2018,06,12,14,15,16.00
2018,06,12,14,16,16.10
2018,06,12,14,17,16.10
2018,06,12,14,18,16.10
2018,06,12,14,19,16.10
2018,06,12,14,20,16.10
2018,06,12,14,21,16.10
2018,06,12,14,22,16.10
2018,06,12,14,23,16.10
2018,06,12,14,24,16.10
2018,06,12,14,25,16.10
2018,06,12,14,26,16.10
2018,06,12,14,27,16.10
2018,06,12,14,28,16.10
2018,06,12,14,29,16.10
2018,06,12,14,30,16.10
2018,06,12,14,31,16.10
2018,06,12,14,32,16.20
2018,06,12,14,33,16.20
2018,06,12,14,34,16.20
2018,06,12,14,35,16.20
2018,06,12,14,36,16.20
2018,06,12,14,37,16.20
2018,06,12,14,38,16.20
2018,06,12,14,39,16.20
2018,06,12,14,40,16.10
2018,06,12,14,41,16.10
2018,06,12,14,42,16.10
2018,06,12,14,43,16.10
2018,06,12,14,44,16.10
2018,06,12,14,45,16.10
2018,06,12,14,46,16.10
2018,06,12,14,47,16.10
2018,06,12,14,48,16.10
2018,06,12,14,49,16.10
2018,06,12,14,50,16.10
2018,06,12,14,51,16.10
2018,06,12,14,52,16.00
2018,06,12,14,53,16.00
2018,06,12,14,54,16.00
2018,06,12,14,55,16.00
2018,06,12,14,56,15.90
2018,06,12,14,57,15.90
2018,06,12,14,58,15.90
2018,06,12,14,59,15.90
2018,06,12,15,00,15.90
2018,06,12,15,01,15.90
2018,06,12,15,02,15.90
2018,06,12,15,03,15.90
2018,06,12,15,04,15.90
2018,06,12,15,05,15.90
2018,06,12,15,06,15.90
2018,06,12,15,07,15.90
2018,06,12,15,08,16.00
2018,06,12,15,09,16.00
2018,06,12,15,10,16.00
2018,06,12,15,11,16.10
2018,06,12,15,12,16.10
2018,06,12,15,13,16.10
2018,06,12,15,14,16.20
2018,06,12,15,15,16.20
2018,06,12,15,16,16.30
2018,06,12,15,17,16.40
2018,06,12,15,18,16.50
2018,06,12,15,19,16.60
2018,06,12,15,20,16.70
2018,06,12,15,21,16.80
2018,06,12,15,22,16.90
2018,06,12,15,23,16.90
2018,06,12,15,24,16.90
2018,06,12,15,25,16.90
2018,06,12,15,26,16.90
2018,06,12,15,27,16.90
2018,06,12,15,28,16.80
2018,06,12,15,29,16.80
2018,06,12,15,30,16.80
2018,06,12,15,31,16.80
2018,06,12,15,32,16.70
2018,06,12,15,33,16.70
2018,06,12,15,34,16.70
2018,06,12,15,35,16.60
2018,06,12,15,36,16.70
2018,06,12,15,37,16.70
2018,06,12,15,38,16.70
2018,06,12,15,39,16.70
2018,06,12,15,40,16.70
2018,06,12,15,41,16.70
2018,06,12,15,42,16.70
2018,06,12,15,43,16.80
2018,06,12,15,44,16.80
2018,06,12,15,45,16.80
2018,06,12,15,46,16.80
2018,06,12,15,47,16.70
2018,06,12,15,48,16.70
2018,06,12,15,49,16.70
2018,06,12,15,50,16.60
2018,06,12,15,51,16.60
2018,06,12,15,52,16.60
2018,06,12,15,53,16.60
2018,06,12,15,54,16.60
2018,06,12,15,55,16.60
2018,06,12,15,56,16.60
2018,06,12,15,57,16.50
2018,06,12,15,58,16.50
2018,06,12,15,59,16.40
2018,06,12,16,00,16.40
2018,06,12,16,01,16.40
2018,06,12,16,02,16.40
2018,06,12,16,03,16.40
2018,06,12,16,04,16.40
2018,06,12,16,05,16.40
2018,06,12,16,06,16.40
2018,06,12,16,07,16.40
2018,06,12,16,08,16.40
2018,06,12,16,09,16.40
2018,06,12,16,10,16.40
2018,06,12,16,11,16.30
2018,06,12,16,12,16.30
2018,06,12,16,13,16.30
2018,06,12,16,14,16.20
2018,06,12,16,15,16.20
2018,06,12,16,16,16.20
2018,06,12,16,17,16.20
2018,06,12,16,18,16.20
2018,06,12,16,19,16.20
2018,06,12,16,20,16.20
2018,06,12,16,21,16.20
2018,06,12,16,22,16.20
2018,06,12,16,23,16.30
2018,06,12,16,24,16.30
2018,06,12,16,25,16.40
2018,06,12,16,26,16.40
2018,06,12,16,27,16.50
2018,06,12,16,28,16.50
2018,06,12,16,29,16.60
2018,06,12,16,30,16.70
2018,06,12,16,31,16.70
2018,06,12,16,32,16.80
2018,06,12,16,33,16.80
2018,06,12,16,34,16.80
2018,06,12,16,35,16.90
2018,06,12,16,36,16.90
2018,06,12,16,37,17.00
2018,06,12,16,38,17.00
2018,06,12,16,39,17.00
2018,06,12,16,40,17.00
2018,06,12,16,41,17.10
2018,06,12,16,42,17.10
2018,06,12,16,43,17.10
2018,06,12,16,44,17.10
2018,06,12,16,45,17.10
2018,06,12,16,46,17.10
2018,06,12,16,47,17.10
2018,06,12,16,48,17.10
2018,06,12,16,49,17.00
2018,06,12,16,50,17.00
2018,06,12,16,51,17.00
2018,06,12,16,52,17.10
2018,06,12,16,53,17.10
2018,06,12,16,54,17.10
2018,06,12,16,55,17.20
2018,06,12,16,56,17.20
2018,06,12,16,57,17.20
2018,06,12,16,58,17.20
2018,06,12,16,59,17.20
2018,06,12,17,00,17.20
2018,06,12,17,01,17.30
2018,06,12,17,02,17.30
2018,06,12,17,03,17.30
2018,06,12,17,04,17.30
2018,06,12,17,05,17.30
2018,06,12,17,06,17.30
2018,06,12,17,07,17.20
2018,06,12,17,08,17.20
2018,06,12,17,09,17.20
2018,06,12,17,10,17.30
2018,06,12,17,11,17.30
2018,06,12,17,12,17.30
2018,06,12,17,13,17.30
2018,06,12,17,14,17.30
2018,06,12,17,15,17.30
2018,06,12,17,16,17.40
2018,06,12,17,17,17.40
2018,06,12,17,18,17.40
2018,06,12,17,19,17.50
2018,06,12,17,20,17.50
2018,06,12,17,21,17.50
2018,06,12,17,22,17.50
2018,06,12,17,23,17.60
2018,06,12,17,24,17.60
2018,06,12,17,25,17.70
2018,06,12,17,26,17.70
2018,06,12,17,27,17.80
2018,06,12,17,28,17.80
2018,06,12,17,29,17.90
2018,06,12,17,30,17.90
2018,06,12,17,31,18.00
2018,06,12,17,32,18.00
2018,06,12,17,33,18.00
2018,06,12,17,34,18.00
2018,06,12,17,35,18.00
2018,06,12,17,36,18.10
2018,06,12,17,37,18.10
2018,06,12,17,38,18.20